Location: Waning Moon II Observatory
(30.3730°N, 89.7620°W)
Time: 09:11:39
(UTC-05:00)

Cosmos 1825 Rocket - Visible Passes

Search period start: 30 March 2015 00:00
Search period end: 09 April 2015 00:00
Orbit: 604 x 633 km, 82.5° (Epoch: 29 March)

Date Brightness Start Highest point End Pass type
(mag) Time Alt. Az. Time Alt. Az. Time Alt. Az.
30 Mar 6.8 03:35:50 10° NE 03:35:50 10° NE 03:35:56 10° NE visible
30 Mar 5.3 05:13:00 20° NW 05:13:00 20° NW 05:14:45 10° NNW visible
31 Mar 6.4 03:53:19 15° NE 03:53:19 15° NE 03:54:13 10° NNE visible
31 Mar 5.8 05:30:29 11° NW 05:30:29 11° NW 05:30:51 10° NW visible
01 Apr 6.0 04:10:44 17° NNE 04:10:44 17° NNE 04:11:47 10° NNE visible
02 Apr 5.9 04:28:07 15° N 04:28:07 15° N 04:28:57 10° N visible
03 Apr 6.1 04:45:28 11° NNW 04:45:28 11° NNW 04:45:42 10° NNW visible
